Погода в Кубе

Погода в Кубе : погода сейчас, прогноз погоды и архив. Всё, что Вы хотите узнать о погоде в Кубе!

Поиск расширенной информации на нашем сайте:

Другие новости

Новости СМИ2

Главная страница сайта

Новости сайта

02.10.2013

Напоминаем, что на нашем новом сайте вы можете получить высокодетализированные прогнозы погоды по пунктам России, СНГ и мира (включающие важные для авиации метеовеличины, такие как направление и скорость ветра, видимость, явления погоды, количество и форма облачности, нижняя и верхняя граница облачности), а также ознакомиться с разнообразными материалами по авиационной метеорологии и подборкой полезных ссылок на эту тему.

Сайт Метеоцентр.Азия посвящён разработке технологий оптимизации авиаметеорологического обслуживания, включая проектирование и перспективное создание нескольких автоматизированных авиаметеорологических систем:
- система выпуска высокодетальных прогностических карт явлений погоды для нижнего воздушного пространства по России и ближнему зарубежью;
- система верификации прогнозов TAF (выпускаемых синоптиками официальных АМСГ РФ и ближнего зарубежья) и AUTOTAF (выпускаемых сайтом Метеоцентр.Азия) - выявление ошибок, онлайн-сопоставление с фактической погодой METAR, автоматическое внесение коррективов в прогнозы при резком отклонении фактической погоды от прогноза, подсчёт оправдываемости прогнозов по элементам и в целом;
- система обработки, анализа и отображения авиаметеорологической информации для применения провайдерами метеорологической информации.

Рекомендуем: Нужен совет по оформлению загранпаспортов срочно стоимость на новый загранпаспорт.

Погода в Кубе - сегодня

Время (UTC), дата Ветер
(°,м/с) 
Видим.   Явления Облачность Т
(°С)
Тd
(°С)
f(%) Тe
(°С)
Pmin
(гПа)
dP
(гПа)
Po
(мм)
O2
(г/м3)
Тmin Tmax R s Состояние
почвы
15 21.01.17 140 (ЮВ) 2000 м    9/9 600 м 
[Sc]
-0.3 -0.9 96 1024.3  0.5  717  289           
18 21.01.17 тихо ()   0200 м  туман  ?/?  
-2.1 -2.4 98 -2  1024.7  -0.1  717  291    +2.1       
21 21.01.17 270 (З) 2000 м    ясно 
-3.2 -4.6 90 -3  1024.5  -0.6  717  293           
00 22.01.17 230 (ЮЗ) 2000 м    ясно 
-1.5 -3.5 86 -1  1022.9  -1  716  290           
03 22.01.17 230 (ЮЗ) 2000 м    ясно 
-3.1 -4.8 88 -4  1022.1  -1.1  715  292           
06 22.01.17 тихо ()   20000 м    6/0 средняя 
[Ac trans]
-1.6 -5 78 -2  1023.7  1.9  717  291           
09 22.01.17 180 (Ю) 20000 м    4/0 верхняя 
[Ci ing]
+2.6 -3.3 65 +3  1022.9  0.2  717  286           
12 22.01.17 050 (СВ) 2000 м  слаб. снег  10/10 300 м 
[Ns]
+0.1 -1 92 -2  1026.5  1.7  719  290           
15 22.01.17 360 (С) 2000 м  слаб. снег  10/10 300 м 
[Ns]
-3.1 -4.1 93 -7  1030.5  721  294         
18 22.01.17 тихо ()   2000 м  слаб. снег  10/10 300 м 
[Ns]
-4.3 -4.9 96 -4  1033.1  2.1  723  296    +3       
21 22.01.17 050 (СВ) 2000 м  {снег}  9/9 600 м 
[Sc]
-3.4 -5.9 83 -3  1032.8  723  295           
00 23.01.17 тихо ()   2000 м  {снег}  ясно 
-5.3 -7.8 83 -5  1032.8  -0.5  722  298           
03 23.01.17 050 (СВ) 2000 м    ясно 
-6.1 -9.2 79 -9  1032.9  -0.2  722  298      0.7     
06 23.01.17 180 (Ю) 20000 м    ясно 
-2.8 -5.5 82 -2  1032.2  0.3  722  295         
09 23.01.17 тихо ()   20000 м    ясно 
+1.4 -4.5 65 +1  1030.7  -0.4  722  290           
12 23.01.17 тихо ()   10 км    6/6 600 м 
[Cu med, cong]
+1.8 -2.6 73 +2  1030.8  0.3  722  289           
15 23.01.17 тихо ()   2000 м    ясно 
-0.2 -0.8 96 -0  1032.3  0.6  723  291           
18 23.01.17 230 (ЮЗ) 2000 м    ясно 
-2.1 -4.6 83 -2  1032.7  0.2  723  294    +2.2       
21 23.01.17 270 (З) 2000 м    ясно 
-3.1 -5.5 83 -4  1033.7  0.6  723  295           
00 24.01.17 270 (З) 2000 м    ясно 
-3.2 -5.6 83 -3  1033.5  -0.2  723  295           
03 24.01.17 270 (З) 2000 м    ясно 
-3.4 -6.2 81 -5  1031.4  -2  722  295           
06 24.01.17 230 (ЮЗ) 20000 м    ясно 
+2.7 -5 57 +3  1029.4  -0.3  722  288           
09 24.01.17 090 (В) 20000 м    ясно 
+8.9 -3.8 40 +10  1025.6  -2.2  720  281           
12 24.01.17 тихо ()   20000 м    ясно 
+8.8 -1.7 48 +9  1022.2  -3.2  717  280           
15 24.01.17 тихо ()   2000 м    ясно 
+3.4 -1.3 71 +3  1021  -2.3  716  285           
Время (UTC), дата Ветер
(°,м/с) 
Видим.   Явления Облачность Т
(°С)
Тd
(°С)
f(%) Тe
(°С)
Pmin
(гПа)
dP
(гПа)
Po
(мм)
O2
(г/м3)
Тmin Tmax R s Состояние
почвы

Для получения пояснительной информации подведите курсор к названию столбца.

ПОГОДА в Кубе - архив

Всё, что Вы хотите узнать о погоде в Кубе - удобно и подробно!

Выберите нужную дату (начиная с 1 января 2015* года) и нажмите кнопку "Найти".
Будут отображены архивные сводки погоды по пункту Куба, начиная с указанной даты.


Отображать данные в формате CSV (для использования в таблицах Excel)


Внимание! Наш архив погоды предназначен исключительно для личного некоммерческого использования в познавательных целях. Если Вам необходимы официальные справки о состоянии погоды (для производственных, юридических, коммерческих и т.п. целей), обращайтесь в органы Росгидромета.

*Примечание: данная дата относится к архиву по метеостанциям СССР (Россия, СНГ, Балтия).
Архив по метеостанциям Зарубежной Европы и Азии (кроме Китая) хранится 10 дней, по другим регионам земного шара (Китай, Африка, Америка, Австралия, Океания) - 1 день.

Куба - район местоположения метеостанции


Название, широта, долгота, высота метеостанции:
Куба 41.4°ш. 48.5°д. 552 м над ур. моря [Азербайджан]

Дополнительная информация

В oтличие oт бoльшинства пoгoдных сайтoв мы публикуем пoдрoбную метеoинфoрмацию в детальнoм прoфессиoнальнoм фoрмате.

Характеристики температуры и влажнoсти вoздуха измеряются на высoте 2 м в тени вдали oт зданий и деревьев.
Скoрoсть ветра измеряется на высoте 10 м (на урoвне рoста челoвека скoрoсть ветра ниже в 1.5-2 раза). Если метеoстанция нахoдится в гoрoде или в лесу, тo скoрoсть ветра занижена на 2-4 м/с пo сравнению с oткрытым местoм. Скoрoсть ветра над акватoриями крупных рек и oзёр, а также на вершинах хoлмoв на 2-5 м/с выше, чем в oбычных услoвиях.
Атмoсфернoе давление в разных тoчках местнoсти мoжет значительнo oтличаться oт давления на метеoстанции, в зависимoсти oт услoвий рельефа (при пoдъёме на 10 м давление пoнижается примернo на 1 мм рт.ст.).